Cloud_Cover
100 100 100 100 100 81 100 100 100 100 100 100 62 45 83 99 78 100 99 92 87 99 100 100 100 67 100 100 100 100 100 100 100 100 100 100 100 100 100 100 100 100 100
96 100 100 100 100 100 100 100 100 100 100 100 100 100 100 100 100 100 100 100 100 91 95 99 100 100 100 100 100 100 100 100 100 100 100 100 100 100 100 100 100 100 100
100 100 100 100 100 100 100 100 100 100 100 100 100 100 100 100 100 100 100 100 100 100 100 100 100 100 100 100 100 100 100 100 100 100 100 100 100 100 100 100 100 100 100
100 100 100 89 100 100 100 100 100 100 100 100 100 100 100 100 100 100 100 100 100 100 100 100 100 100 100 100 100 100 100 100 100 100 100 100 100 100 100 100 100 100 100
100 100 100 100 32 100 100 100 100 100 100 100 100 100 100 100 100 100 100 100 100 100 100 100 100 100 100 100 100 100 99 100 100 100 100 100 100 100 100 100 100 100 100
100 100 100 100 92 49 98 100 100 100 100 100 100 100 100 100 100 100 100 100 100 100 100 100 100 100 100 100 100 100 100 100 100 100 100 100 100 100 100 100 100 100 100
100 100 100 100 100 100 84 100 100 100 100 100 100 100 100 100 100 100 100 100 100 100 100 100 100 100 100 100 100 100 100 100 100 100 100 100 100 100 100 100 100 100 100
100 100 100 100 100 100 100 100 100 100 100 100 100 100 100 100 100 100 100 100 100 100 100 100 100 100 100 100 100 100 100 100 100 100 100 100 100 100 100 100 100 100 100
100 100 100 100 100 100 100 100 100 100 100 100 100 100 100 100 100 100 100 100 100 100 100 100 100 100 100 100 100 100 100 100 100 100 100 100 100 100 100 100 100 100 100
100 100 100 100 100 100 100 100 100 100 100 100 100 100 100 100 100 100 100 100 100 100 100 100 100 100 100 100 100 100 100 100 100 100 100 100 100 100 100 100 100 100 100
100 100 100 100 100 100 100 100 100 100 100 100 87 100 100 100 100 100 100 100 100 100 100 100 100 100 100 100 100 100 100 100 100 100 100 100 99 100 100 100 100 100 100
94 100 100 100 100 100 100 100 100 100 100 100 100 100 100 100 100 100 100 100 100 100 100 100 100 100 100 100 100 100 100 100 100 100 100 100 100 100 100 100 100 100 100
81 97 100 100 100 100 100 100 100 100 99 100 100 99 100 100 100 100 100 100 100 100 100 100 100 100 100 100 100 100 100 100 100 100 100 100 100 100 100 100 96 100 100
87 96 97 100 100 100 100 100 100 100 100 99 99 98 100 100 78 96 100 100 100 100 100 100 100 100 100 100 78 100 100 100 100 100 100 100 100 100 100 100 100 100 100
93 98 77 100 100 100 100 100 100 100 100 100 100 100 100 100 100 100 100 100 100 100 100 100 100 100 100 100 100 54 100 100 100 100 100 100 100 100 100 100 100 100 99
88 39 98 100 100 100 100 100 100 100 100 100 100 86 99 100 100 100 100 100 100 100 100 97 100 100 100 100 100 100 100 100 100 100 100 100 100 100 100 100 100 99 100
99 94 92 96 100 100 100 100 100 100 100 100 100 100 100 53 35 20 42 58 78 88 99 100 100 100 100 100 100 100 100 100 100 100 100 100 100 100 100 100 100 100 100
100 100 100 100 98 100 100 100 100 100 100 100 100 100 100 100 58 7 5 5 5 5 5 5 10 78 100 100 100 100 100 100 100 100 100 100 100 100 100 100 100 100 100
100 100 100 100 100 100 93 91 84 99 80 94 100 100 100 92 43 28 65 22 5 5 5 5 5 5 5 12 92 100 100 99 92 63 100 69 90 100 100 100 100 92 58
100 100 100 100 100 100 100 100 100 68 94 100 94 74 100 99 98 100 99 10 5 5 5 5 5 5 5 5 62 84 84 65 99 100 100 100 100 100 100 100 89 99 86
100 100 100 100 100 100 100 100 98 74 79 68 55 62 63 47 32 26 5 5 5 5 5 5 5 5 5 5 71 100 99 95 29 62 96 99 99 100 100 100 96 64 99
100 100 100 100 99 98 100 100 64 17 38 17 10 5 48 13 5 5 5 5 5 5 5 40 11 5 5 5 82 100 100 100 100 86 51 19 83 100 100 100 95 86 100
100 100 100 100 100 100 44 48 100 100 100 100 64 2 5 5 5 5 5 5 5 62 86 78 14 5 5 5 96 91 22 100 100 100 88 100 100 89 92 9 21 86 39
100 100 100 100 99 70 21 13 5 5 5 5 5 5 5 6 5 5 21 87 99 100 100 96 61 33 97 77 99 44 82 98 86 7 41 56 100 82 5 5 9 43 95
100 100 100 97 76 56 68 90 29 5 6 23 36 19 50 29 78 80 78 100 100 100 100 100 100 100 97 98 100 100 100 100 97 100 85 100 72 5 7 72 76 82 89
100 100 100 100 100 100 83 52 98 100 77 81 58 44 84 88 100 100 94 13 83 100 100 100 100 100 100 100 100 100 100 100 100 100 88 14 15 99 100 100 100 99 100